Location: Manitoulin Island
(45.7026°N, 82.0372°W)
Time: 06:08:52
(UTC-05:00)

ISS - Visible Passes

Search period start: 23 November 2017 00:00
Search period end: 03 December 2017 00:00
Orbit: 402 x 407 km, 51.6° (Epoch: 23 November)

Date Brightness Start Highest point End Pass type
(mag) Time Alt. Az. Time Alt. Az. Time Alt. Az.
26 Nov -1.6 18:34:37 10° S 18:35:51 15° SSE 18:35:51 15° SSE visible
27 Nov -1.4 19:17:25 10° SW 19:18:37 20° SW 19:18:37 20° SW visible
28 Nov -3.0 18:25:22 10° SSW 18:28:24 35° SE 18:28:36 35° SE visible
29 Nov -2.1 17:33:41 10° S 17:36:13 21° SE 17:38:30 11° E visible
29 Nov -2.1 19:09:09 10° WSW 19:11:10 34° W 19:11:10 34° W visible
30 Nov -3.9 18:16:46 10° SW 18:20:02 76° SSE 18:21:00 42° ENE visible
01 Dec -3.1 17:24:36 10° SW 17:27:43 43° SE 17:30:46 11° ENE visible
01 Dec -2.3 19:01:05 10° W 19:03:25 34° NW 19:03:25 34° NW visible
02 Dec -3.5 18:08:29 10° WSW 18:11:44 58° NNW 18:13:09 29° NE visible
02 Dec -0.3 19:45:45 10° WNW 19:45:47 10° WNW 19:45:47 10° WNW visible
